Regional Weather Roundup
Issued by NWS Cleveland, OH

Home | Current Version | Previous Version | Text Only | Print | Product List | Glossary Off
Versions: 1 2 3 4 5 6 7 8 9 10 11 12 13 14 15 16 17 18 19 20 21 22 23 24 25 26 27 28 29 30 31 32 33 34 35 36 37 38 39 40 41 42 43 44 45 46 47 48 49 50

000
ASUS41 KCLE 271700
RWRCLE
OHIO REGIONAL WEATHER ROUNDUP
NATIONAL WEATHER SERVICE WILMINGTON, OH
1200 PM EST TUE JAN 27 2015

NOTE: "FAIR" INDICATES FEW OR NO CLOUDS BELOW 12,000 FEET WITH NO
SIGNIFICANT WEATHER AND/OR OBSTRUCTIONS TO VISIBILITY.

OHZ001>008-015>018-024>027-034-035-043-044-271800-
   NORTHWEST OHIO

CITY           SKY/WX    TMP DP  RH WIND       PRES   REMARKS
DEFIANCE       MOSUNNY   23  13  65 VRB6      30.13S WCI  16
FINDLAY        SUNNY     20  11  68 N9        30.10R WCI   9
TOLEDO EXPRESS SUNNY     21  12  68 N5        30.12S WCI  15
TOLEDO EXEC    PTSUNNY   22  11  62 N8        30.13R WCI  12
LIMA           SUNNY     19  11  70 N7        30.10R WCI  10
$$

OHZ009>014-019>023-028>033-038-089-271800-
   NORTHEAST OHIO

CITY           SKY/WX    TMP DP  RH WIND       PRES   REMARKS
CLE-HOPKINS    LGT SNOW  18  14  84 N12       30.08S VSB 1   WCI   5
CLE-LAKEFRONT  LGT SNOW  19  14  81 N12       30.06F WCI   7
CUY CO. ARPT   LGT SNOW  21  16  79 N12       30.05S WCI   9
LORAIN-ELYRIA  LGT SNOW  19  14  81 N13       30.07S WCI   6
ASHTABULA      FLURRIES  19  13  77 N8        30.02S WCI   9
AKRON-CANTON   FLURRIES  20  11  68 N10       29.99S WCI   9
WOOSTER        NOT AVBL
MANSFIELD      CLOUDY    20  12  71 N10       30.02S WCI   9
YOUNGSTOWN     FLURRIES  19  14  81 NW12      29.97S WCI   7
$$

OHZ042-051>053-060>062-070>072-077>081-271800-
  SOUTHWEST OHIO

CITY           SKY/WX    TMP DP  RH WIND       PRES   REMARKS
CINC-COVINGTON PTSUNNY   26  13  57 NE6       30.08S WCI  19
CINC-LUNKEN    MOSUNNY   25  14  63 VRB3      30.12S
HAMILTON       FLURRIES  25  14  63 VRB6      30.12R WCI  18
DAYTON         NOT AVBL
WRIGHT-PAT AFB MOSUNNY   21  13  71 N6        30.10R WCI  13
DAYTON GENERAL SUNNY     23  13  65 NE7       30.08R WCI  15
WILMINGTON     CLOUDY    20  12  71 NE10      30.06R WCI   9
$$

OHZ036-037-039>041-045>050-054>059-063>069-073>076-082>088-271800-
  CENTRAL AND SOUTHEAST OHIO

CITY           SKY/WX    TMP DP  RH WIND       PRES   REMARKS
COLUMBUS       PTSUNNY   21  12  68 N9        30.06S WCI  11
OSU AIRPORT    MOSUNNY   18  12  77 N10       30.07S WCI   6
BOLTON FIELD   CLOUDY    19  12  73 NW7       30.07S WCI  10
RICKENBACK AFB NOT AVBL
NEWARK         CLOUDY    22  12  65 N8        30.04S WCI  12
MARION         SUNNY     19  12  74 NW8       30.07R WCI   9
LANCASTER      PTSUNNY   21  13  71 NW8       30.06S WCI  11
ZANESVILLE     LGT SNOW  20  13  74 NW8       30.03R WCI  10
NEW PHILLY     LGT SNOW  22  13  68 NW9       30.02S WCI  12
$$



USA.gov is the U.S. government's official web portal to all federal, state and local government web resources and services.